Vertical_Velocity
-1 -0 -1 0 1 -3 -1 2 0 -1 1 -0 -3 2 -1 -0 -2 -4 -2 -1 0 -2 -2 -2 -3 -2 0 3 3 1 -5 -0 -0 -1 -0 0 -1 2 8 -7 3 1 -1 -3 -2
2 -2 1 1 0 2 0 -0 -2 -1 -1 -2 -0 1 0 -3 -0 1 2 1 2 -2 -4 -0 -1 -5 -1 -6 2 -5 -2 -2 -1 -1 -0 -1 0 -3 -3 2 -0 4 5 1 -2
-1 -1 0 -1 -1 -1 -0 -1 1 -2 -1 -1 -1 -1 -2 0 -2 -3 -1 0 2 -1 -2 -1 0 1 -2 1 -1 -1 -3 -1 -4 1 0 0 1 1 -3 0 -3 -13 -2 -1 -0
-1 -1 -1 -1 -0 -1 1 1 -1 -1 -3 -3 -2 -2 -1 -2 -5 -3 -1 3 1 0 -0 -1 -2 -2 -1 -1 2 -1 -2 2 -3 -2 -1 -2 1 1 0 -3 -5 -0 -3 -4 -5
-2 -0 -2 -1 -1 1 1 1 1 -2 -1 -1 -2 -2 -1 -1 -2 -0 -1 2 1 -1 -1 -1 -2 0 -0 -0 0 1 -2 -0 -3 10 -7 8 -2 -3 1 1 1 3 4 -1 0
-0 -2 -2 -1 1 -1 -1 -1 -1 -2 -0 0 -3 0 -1 -2 -2 0 2 2 1 0 1 -1 -0 1 1 -0 -0 2 1 -4 1 -2 4 -1 0 -3 3 3 3 -0 -1 -2 -2
0 -2 -2 -1 -1 -2 -1 -2 2 1 -2 -0 -2 -1 -1 -7 -1 -2 1 2 1 1 0 4 3 -1 1 -2 1 -1 0 -2 -1 -1 1 -3 -3 -1 -1 5 1 -0 2 1 1
-3 -1 1 -1 -4 0 -2 0 -2 -1 1 -1 -1 -0 -7 -2 -4 -3 -1 -0 -0 1 2 5 0 5 -1 0 -3 -2 -6 -3 -8 -1 -3 -4 -8 0 3 -4 0 1 2 -1 -1
-2 -1 -1 -2 -2 -2 -1 -3 -0 -0 -0 0 -1 -1 -7 -1 -4 3 -2 1 1 -0 0 2 -2 -1 -1 -2 -6 -4 -1 -0 -9 0 -1 -4 -3 -1 3 3 1 1 0 -1 3
-2 -1 -1 -3 -4 -2 -0 -1 0 -1 -0 -1 2 0 0 4 2 -3 1 1 -1 -2 -3 -1 -2 -2 -3 -5 -5 -2 -1 -1 -0 -6 -1 1 -1 1 1 1 -4 0 1 0 -2
-3 -1 -3 -1 -1 -2 -3 -0 -1 -0 -2 -2 1 0 0 2 1 0 0 3 3 2 -2 -0 -7 -2 -2 -1 -1 0 1 -0 -3 -2 2 -1 -0 -0 -1 4 1 2 -0 -3 -2
-5 -3 -4 -0 -2 -3 -0 0 -0 7 -12 2 -2 -6 -0 6 -4 4 3 -1 1 -1 -0 -9 -2 -5 -0 1 1 1 1 -2 -4 -1 0 -0 -3 0 0 -8 -8 -4 -0 -2 0
-2 -2 -4 0 -3 -0 3 1 5 4 3 -12 -1 -4 -2 2 -5 -10 5 -1 -1 0 -0 -3 -8 0 0 -1 1 -1 -0 -1 -2 -1 -3 -2 -7 -2 -3 2 4 9 6 3 -4
-1 -4 -3 0 -1 1 2 1 3 0 -8 -16 -2 -10 -6 -2 -4 -2 5 -9 1 -4 -1 -3 -4 0 1 -0 -3 0 -1 0 -0 -3 -4 -5 -8 -3 -1 -0 0 3 0 -2 -6
-1 -2 -1 -1 -1 1 -1 -0 0 -2 -4 -13 -2 6 10 -12 -0 1 1 9 -2 -2 -9 -15 -0 -1 0 -6 -2 -10 -1 0 -0 -1 -2 -3 -7 -13 -1 -1 0 2 -1 11 13
-1 -3 1 -0 -2 1 -1 -1 0 -20 -15 -7 -1 -0 -2 2 -0 2 2 8 1 -0 1 -4 -0 1 -6 -1 -1 -0 -2 -3 -2 -2 -6 -3 -5 -8 -0 1 -2 1 2 7 -0
1 -1 -2 -2 -1 -1 -1 1 -15 -6 -12 -8 0 -0 -1 1 1 -0 -0 1 -5 -2 -2 -4 -2 -2 1 -0 -2 -5 -6 -6 -8 -9 -7 -0 -3 -11 -2 -0 -1 -0 7 -12 -4
-1 -3 -4 2 -1 -1 1 -11 -2 -6 -2 -4 0 -0 -3 -2 -2 1 1 -0 -1 -2 -1 -2 -15 -1 -0 -4 -7 1 -7 -8 -3 -2 -5 -2 -2 -14 -0 -1 3 -1 0 -5 8
-1 -3 -2 1 -3 -3 2 -3 -11 -2 0 0 -6 -0 -1 0 -3 -1 -1 -2 -3 -3 -9 -1 -6 -2 0 -1 -10 -2 -3 -7 -6 -1 -3 -2 -4 -8 -1 -0 4 4 6 -2 1
-1 0 -1 -0 4 2 -7 -5 -2 -0 1 -3 0 -0 -0 -1 -0 -1 -1 -6 -2 -3 -2 -3 -4 -2 -5 -3 1 -11 -8 -9 -5 -3 -1 -3 -1 -5 -1 0 1 1 -1 3 4
-1 0 2 2 5 3 -5 -5 -1 -1 4 -0 -0 -0 -1 -0 -2 -0 -4 -7 -0 2 -1 -2 -6 -12 -5 -2 -4 -3 -1 -5 -9 -4 -6 -2 -10 -5 -4 -3 -2 -0 1 -2 1
-1 -5 8 4 -7 0 -1 -2 3 -1 -0 -2 0 1 0 -0 0 0 -3 -5 3 -5 -3 -5 -5 -1 -9 -1 1 -1 -1 -3 -7 -3 -0 -4 -14 -1 -1 -1 -0 1 -7 -3 -3
-1 0 6 5 -4 -1 -3 -2 1 0 -1 -1 -0 1 -0 0 -2 1 -0 -2 0 -1 -8 -5 -3 -3 -15 -15 -5 -3 1 -1 -1 -3 -1 -5 -12 -0 -0 1 0 3 1 3 7
1 -4 1 4 2 -3 -0 -3 -1 1 -1 -0 -2 2 1 -1 -1 -1 -1 -1 1 0 0 -4 -1 -8 -10 -12 -3 0 0 0 -3 -3 -2 -5 -3 -0 -1 -1 -1 -1 -2 13 1
-1 0 2 -3 -2 0 1 1 -0 -2 -0 3 0 1 -1 -1 -1 -1 -1 -4 -3 1 -0 -7 -3 -1 0 -1 -0 -1 -0 0 -1 -2 -5 -4 -1 -2 -3 -3 -3 2 3 12 2
-2 -1 -2 -1 -0 1 -0 -3 -0 -4 2 -3 0 0 -1 -3 -4 -1 1 -1 2 -7 -1 -1 -2 -1 -0 0 -1 -0 0 0 -0 0 0 -0 -1 -1 2 -0 -1 -1 -3 -4 -10
2 0 1 0 -1 -2 -1 -2 -4 2 -1 -0 -0 -2 -0 -3 -2 -1 1 -0 1 0 -0 -1 -2 -2 0 0 -1 -6 1 0 1 -0 -2 -1 -6 -0 1 -0 -2 -4 -3 -3 -4
Height
1533 1532 1532 1530 1529 1528 1526 1524 1520 1520 1518 1517 1515 1514 1512 1510 1509 1507 1507 1506 1505 1506 1506 1505 1504 1502 1502 1501 1501 1501 1513 1520 1514 1510 1506 1505 1506 1508 1509 1509 1511 1511 1512 1512 1521
1532 1533 1531 1529 1528 1528 1526 1524 1521 1519 1517 1516 1514 1513 1511 1508 1507 1506 1506 1504 1504 1505 1506 1506 1506 1504 1503 1504 1502 1502 1516 1508 1500 1499 1501 1503 1508 1505 1509 1511 1513 1510 1514 1516 1520
1533 1532 1531 1529 1527 1527 1525 1523 1521 1519 1517 1516 1514 1512 1510 1508 1508 1506 1505 1504 1503 1503 1506 1507 1506 1505 1504 1506 1505 1505 1511 1499 1497 1497 1502 1504 1507 1506 1507 1511 1508 1508 1513 1517 1521
1532 1531 1529 1528 1527 1526 1524 1522 1521 1519 1517 1516 1513 1512 1510 1509 1513 1506 1505 1504 1503 1504 1506 1506 1506 1505 1506 1508 1507 1508 1500 1500 1496 1496 1500 1502 1502 1503 1503 1504 1505 1508 1513 1514 1519
1531 1530 1529 1527 1526 1524 1522 1521 1519 1518 1517 1515 1513 1512 1510 1509 1508 1506 1505 1504 1504 1505 1506 1506 1506 1506 1508 1509 1507 1505 1499 1498 1494 1497 1497 1499 1498 1500 1502 1501 1505 1510 1512 1514 1518
1530 1528 1527 1526 1524 1522 1520 1519 1519 1518 1516 1514 1513 1511 1510 1510 1508 1506 1505 1504 1505 1505 1505 1506 1507 1507 1506 1506 1506 1501 1499 1498 1492 1492 1494 1497 1497 1500 1503 1503 1506 1509 1511 1516 1516
1528 1527 1526 1524 1522 1520 1519 1518 1517 1516 1515 1513 1511 1510 1509 1508 1507 1506 1505 1505 1505 1505 1505 1506 1507 1508 1506 1505 1504 1501 1501 1494 1492 1494 1494 1494 1501 1500 1498 1502 1504 1508 1511 1514 1517
1527 1525 1523 1521 1520 1518 1516 1515 1514 1513 1512 1512 1510 1509 1506 1505 1505 1505 1505 1505 1505 1505 1504 1505 1505 1505 1506 1505 1502 1505 1505 1517 1493 1492 1491 1495 1513 1498 1499 1499 1504 1507 1511 1514 1517
1525 1523 1521 1519 1517 1516 1515 1513 1512 1510 1510 1509 1509 1509 1504 1504 1504 1504 1504 1505 1505 1504 1504 1505 1504 1505 1505 1511 1519 1519 1526 1518 1508 1489 1491 1495 1503 1494 1498 1499 1503 1506 1510 1512 1516
1522 1521 1519 1517 1516 1514 1513 1511 1509 1509 1509 1508 1507 1510 1504 1503 1502 1502 1504 1505 1506 1505 1504 1505 1505 1510 1514 1521 1544 1528 1525 1519 1518 1494 1490 1494 1495 1495 1496 1497 1498 1504 1509 1512 1515
1520 1519 1518 1517 1515 1513 1512 1511 1512 1511 1507 1506 1505 1503 1500 1501 1500 1501 1502 1505 1505 1506 1509 1507 1514 1522 1515 1514 1513 1515 1518 1522 1505 1492 1493 1495 1497 1495 1497 1502 1503 1501 1505 1509 1512
1519 1518 1517 1515 1514 1514 1514 1513 1517 1517 1508 1501 1500 1499 1497 1500 1501 1500 1503 1505 1505 1510 1507 1515 1521 1508 1508 1510 1513 1515 1517 1514 1503 1493 1494 1494 1497 1497 1496 1493 1492 1494 1501 1505 1511
1518 1516 1515 1514 1513 1514 1514 1514 1514 1513 1511 1496 1494 1494 1495 1498 1498 1498 1501 1501 1504 1508 1510 1518 1507 1503 1506 1507 1512 1509 1511 1510 1512 1500 1498 1501 1509 1504 1496 1492 1493 1498 1498 1504 1507
1516 1515 1513 1513 1516 1512 1513 1513 1513 1513 1523 1500 1490 1486 1490 1495 1495 1494 1496 1500 1503 1507 1508 1510 1501 1503 1504 1506 1506 1514 1503 1502 1506 1514 1530 1510 1545 1511 1505 1495 1493 1496 1498 1501 1505
1515 1513 1512 1513 1511 1511 1513 1513 1513 1515 1543 1489 1486 1484 1484 1489 1490 1490 1493 1497 1501 1502 1505 1510 1502 1504 1505 1501 1497 1509 1497 1504 1506 1518 1521 1520 1538 1519 1504 1504 1497 1491 1491 1493 1498
1514 1511 1510 1509 1509 1511 1512 1513 1515 1530 1538 1492 1481 1482 1486 1486 1487 1488 1490 1495 1496 1500 1501 1502 1497 1499 1496 1491 1493 1495 1502 1513 1521 1530 1551 1529 1532 1529 1512 1509 1503 1499 1503 1509 1513
1511 1508 1507 1507 1509 1510 1512 1513 1531 1540 1500 1494 1487 1484 1484 1487 1487 1488 1491 1497 1505 1516 1514 1504 1498 1492 1490 1495 1495 1501 1523 1558 1551 1561 1555 1529 1533 1526 1510 1503 1499 1503 1507 1515 1514
1507 1505 1504 1505 1507 1509 1511 1516 1531 1512 1507 1490 1487 1485 1490 1488 1488 1490 1495 1503 1497 1501 1515 1522 1525 1493 1490 1494 1502 1506 1517 1554 1557 1567 1554 1530 1538 1524 1507 1502 1502 1502 1511 1511 1508
1503 1502 1501 1502 1505 1509 1512 1530 1521 1509 1497 1496 1490 1489 1491 1486 1486 1490 1496 1498 1493 1494 1515 1523 1516 1490 1488 1488 1493 1507 1521 1514 1544 1551 1555 1547 1525 1513 1510 1511 1507 1505 1508 1508 1506
1501 1499 1499 1501 1504 1508 1513 1521 1510 1501 1497 1495 1500 1491 1496 1492 1491 1494 1498 1485 1489 1488 1488 1501 1517 1494 1486 1486 1491 1496 1502 1527 1542 1550 1551 1549 1538 1534 1519 1517 1514 1507 1502 1507 1507
1501 1499 1501 1502 1506 1509 1519 1516 1504 1499 1497 1497 1497 1496 1490 1489 1489 1495 1493 1482 1479 1483 1488 1496 1507 1504 1491 1495 1499 1505 1511 1524 1532 1545 1560 1565 1546 1514 1510 1510 1512 1511 1508 1505 1504
1501 1502 1502 1504 1509 1513 1514 1507 1502 1499 1497 1496 1494 1494 1490 1484 1485 1486 1491 1480 1471 1475 1492 1491 1507 1519 1507 1489 1490 1491 1503 1517 1541 1537 1550 1552 1543 1507 1507 1506 1506 1509 1510 1505 1504
1502 1503 1504 1505 1514 1515 1508 1505 1502 1500 1497 1495 1494 1489 1485 1484 1489 1483 1480 1472 1470 1474 1483 1488 1509 1526 1518 1505 1494 1500 1499 1514 1524 1532 1544 1550 1538 1508 1506 1505 1506 1509 1509 1507 1503
1505 1506 1506 1507 1506 1508 1508 1506 1502 1495 1494 1492 1489 1488 1487 1485 1485 1484 1481 1471 1470 1471 1472 1476 1504 1507 1525 1513 1502 1504 1503 1505 1516 1538 1538 1535 1516 1513 1506 1504 1501 1500 1501 1507 1512
1507 1508 1510 1510 1506 1506 1507 1505 1502 1500 1491 1487 1487 1488 1485 1492 1491 1491 1484 1477 1471 1473 1474 1480 1500 1497 1497 1493 1494 1497 1500 1504 1508 1513 1519 1512 1517 1509 1504 1503 1500 1501 1501 1505 1514
1510 1510 1509 1508 1506 1506 1504 1503 1500 1496 1494 1487 1487 1486 1486 1490 1490 1490 1486 1484 1483 1477 1479 1481 1500 1494 1501 1496 1494 1499 1498 1498 1501 1505 1504 1509 1514 1507 1502 1503 1503 1504 1503 1500 1497
1512 1511 1511 1509 1507 1506 1506 1503 1495 1494 1488 1486 1486 1485 1487 1486 1485 1484 1483 1482 1482 1483 1485 1487 1497 1507 1511 1504 1501 1515 1502 1501 1507 1513 1512 1512 1509 1505 1503 1501 1501 1504 1507 1504 1504